| time (UTC) | temp F | wind direction | speed MPH | gust MPH | rain 1hr in | rain 24hr in | rain mn in | humidity % | barometer mb |
| 20260902120211 | 85 | 223 | 7.0 | 10.0 | 0.00 | 0.00 | 0.00 | 41 | 1020.3 |
| 20260902115212 | 85 | 176 | 3.0 | 8.0 | 0.00 | 0.00 | 0.00 | 41 | 1020.5 |
| 20260902114211 | 84 | 281 | 2.0 | 8.0 | 0.00 | 0.00 | 0.00 | 42 | 1020.5 |
| 20260902113211 | 83 | 189 | 4.0 | 8.0 | 0.00 | 0.00 | 0.00 | 43 | 1020.5 |
| 20260902112211 | 83 | 151 | 5.0 | 11.0 | 0.00 | 0.00 | 0.00 | 44 | 1020.7 |
| 20260902111211 | 82 | 264 | 5.0 | 11.0 | 0.00 | 0.00 | 0.00 | 47 | 1020.7 |
| 20260902110211 | 81 | 219 | 1.0 | 4.0 | 0.00 | 0.00 | 0.00 | 46 | 1020.8 |
| 20260902105211 | 80 | 117 | 3.0 | 7.0 | 0.00 | 0.00 | 0.00 | 51 | 1020.9 |
| 20260902104211 | 79 | 215 | 4.0 | 8.0 | 0.00 | 0.00 | 0.00 | 52 | 1021.0 |
| 20260902103212 | 78 | 188 | 4.0 | 7.0 | 0.00 | 0.00 | 0.00 | 54 | 1021.2 |
| 20260902102211 | 77 | 182 | 2.0 | 7.0 | 0.00 | 0.00 | 0.00 | 55 | 1021.3 |
| 20260902101212 | 76 | 140 | 3.0 | 8.0 | 0.00 | 0.00 | 0.00 | 57 | 1021.3 |
| 20260902100211 | 75 | 183 | 3.0 | 10.0 | 0.00 | 0.00 | 0.00 | 59 | 1021.3 |
| 20260902095211 | 74 | 148 | 5.0 | 8.0 | 0.00 | 0.00 | 0.00 | 61 | 1021.2 |
| 20260902094211 | 72 | 242 | 3.0 | 8.0 | 0.00 | 0.00 | 0.00 | 64 | 1021.4 |
| 20260902093211 | 71 | 178 | 2.0 | 6.0 | 0.00 | 0.00 | 0.00 | 68 | 1021.5 |
| 20260902092211 | 69 | 279 | 2.0 | 6.0 | 0.00 | 0.00 | 0.00 | 71 | 1021.5 |
| 20260902091212 | 68 | 209 | 2.0 | 7.0 | 0.00 | 0.00 | 0.00 | 76 | 1021.6 |
| 20260902090211 | 67 | 205 | 4.0 | 7.0 | 0.00 | 0.00 | 0.00 | 81 | 1021.7 |
| 20260902085211 | 65 | 197 | 0.0 | 7.0 | 0.00 | 0.00 | 0.00 | 85 | 1021.6 |
| 20260902084211 | 64 | 150 | 1.0 | 6.0 | 0.00 | 0.00 | 0.00 | 88 | 1021.6 |
| 20260902083211 | 63 | 196 | 0.0 | 0.0 | 0.00 | 0.00 | 0.00 | 89 | 1021.7 |
| 20260902082211 | 62 | 174 | 0.0 | 0.0 | 0.00 | 0.00 | 0.00 | 91 | 1021.7 |
| 20260902081211 | 61 | 225 | 0.0 | 0.0 | 0.00 | 0.00 | 0.00 | 92 | 1021.7 |
| 20260902080211 | 61 | 251 | 0.0 | 0.0 | 0.00 | 0.00 | 0.00 | 92 | 1021.5 |
| 20260902075211 | 60 | 263 | 0.0 | 0.0 | 0.00 | 0.00 | 0.00 | 93 | 1021.5 |
| 20260902074211 | 60 | 236 | 0.0 | 0.0 | 0.00 | 0.00 | 0.00 | 93 | 1021.2 |
| 20260902073211 | 60 | 217 | 0.0 | 0.0 | 0.00 | 0.00 | 0.00 | 93 | 1021.3 |
| 20260902072211 | 59 | 252 | 0.0 | 0.0 | 0.00 | 0.00 | 0.00 | 93 | 1021.2 |
| 20260902071211 | 59 | 225 | 0.0 | 0.0 | 0.00 | 0.00 | 0.00 | 93 | 1021.1 |
| 20260902070211 | 58 | 236 | 0.0 | 0.0 | 0.00 | 0.00 | 0.00 | 93 | 1021.2 |
| 20260902065211 | 58 | 219 | 0.0 | 0.0 | 0.00 | 0.00 | 0.00 | 93 | 1021.0 |
| 20260902064211 | 57 | 211 | 0.0 | 0.0 | 0.00 | 0.00 | 0.00 | 93 | 1021.1 |
| 20260902063211 | 57 | 180 | 0.0 | 0.0 | 0.00 | 0.00 | 0.00 | 93 | 1021.1 |
| 20260902062211 | 56 | 205 | 0.0 | 0.0 | 0.00 | 0.00 | 0.00 | 92 | 1021.1 |
| 20260902061211 | 56 | 194 | 0.0 | 0.0 | 0.00 | 0.00 | 0.00 | 92 | 1021.1 |
| 20260902060211 | 56 | 182 | 0.0 | 0.0 | 0.00 | 0.00 | 0.00 | 92 | 1021.1 |
| 20260902055211 | 55 | 159 | 0.0 | 0.0 | 0.00 | 0.00 | 0.00 | 92 | 1020.9 |
| 20260902054211 | 55 | 200 | 0.0 | 0.0 | 0.00 | 0.00 | 0.00 | 92 | 1021.1 |
| 20260902053211 | 54 | 200 | 0.0 | 0.0 | 0.00 | 0.00 | 0.00 | 91 | 1021.1 |
| 20260902052211 | 54 | 202 | 0.0 | 0.0 | 0.00 | 0.00 | 0.00 | 91 | 1021.1 |
| 20260902051211 | 54 | 198 | 0.0 | 0.0 | 0.00 | 0.00 | 0.00 | 91 | 1020.9 |
| 20260902044211 | 54 | 232 | 0.0 | 0.0 | 0.00 | 0.00 | 0.00 | 91 | 1020.7 |
| 20260902043211 | 54 | 232 | 0.0 | 0.0 | 0.00 | 0.00 | 0.00 | 90 | 1020.8 |
| 20260902042211 | 54 | 232 | 0.0 | 0.0 | 0.00 | 0.00 | 0.00 | 91 | 1020.8 |
| 20260902041211 | 54 | 232 | 0.0 | 0.0 | 0.00 | 0.00 | 0.00 | 90 | 1020.7 |
| 20260902035211 | 55 | 232 | 0.0 | 0.0 | 0.00 | 0.00 | 0.00 | 90 | 1020.7 |
| 20260902034211 | 55 | 232 | 0.0 | 0.0 | 0.00 | 0.00 | 0.00 | 90 | 1020.6 |
| 20260902033211 | 55 | 232 | 0.0 | 0.0 | 0.00 | 0.00 | 0.00 | 90 | 1020.5 |
| 20260902032211 | 55 | 267 | 0.0 | 0.0 | 0.00 | 0.00 | 0.00 | 90 | 1020.5 |
| 20260902031211 | 55 | 267 | 0.0 | 0.0 | 0.00 | 0.00 | 0.00 | 90 | 1020.7 |
| 20260902030211 | 55 | 267 | 0.0 | 0.0 | 0.00 | 0.00 | 0.00 | 90 | 1020.7 |
| 20260902025212 | 55 | 267 | 0.0 | 0.0 | 0.00 | 0.00 | 0.00 | 89 | 1020.8 |
| 20260902024211 | 55 | 267 | 0.0 | 0.0 | 0.00 | 0.00 | 0.00 | 89 | 1020.8 |
| 20260902023211 | 55 | 271 | 0.0 | 0.0 | 0.00 | 0.00 | 0.00 | 89 | 1020.9 |
| 20260902022211 | 56 | 273 | 0.0 | 0.0 | 0.00 | 0.00 | 0.00 | 89 | 1020.8 |
| 20260902020211 | 56 | 273 | 0.0 | 0.0 | 0.00 | 0.00 | 0.00 | 89 | 1020.7 |
| 20260902015212 | 56 | 273 | 0.0 | 0.0 | 0.00 | 0.00 | 0.00 | 89 | 1020.8 |
| 20260902014212 | 56 | 273 | 0.0 | 0.0 | 0.00 | 0.00 | 0.00 | 88 | 1020.7 |
| 20260902013211 | 56 | 273 | 0.0 | 0.0 | 0.00 | 0.00 | 0.00 | 88 | 1020.7 |
| 20260902012211 | 56 | 249 | 0.0 | 0.0 | 0.00 | 0.00 | 0.00 | 88 | 1020.7 |
| 20260902011211 | 57 | 240 | 0.0 | 0.0 | 0.00 | 0.00 | 0.00 | 88 | 1020.8 |
| 20260902010211 | 57 | 151 | 0.0 | 0.0 | 0.00 | 0.00 | 0.00 | 87 | 1020.8 |
| 20260902005210 | 57 | 270 | 0.0 | 0.0 | 0.00 | 0.00 | 0.00 | 87 | 1020.8 |
| 20260902004212 | 57 | 240 | 0.0 | 0.0 | 0.00 | 0.00 | 0.00 | 87 | 1020.8 |
| 20260902003211 | 58 | 240 | 0.0 | 0.0 | 0.00 | 0.00 | 0.00 | 86 | 1020.9 |
| 20260902002211 | 58 | 240 | 0.0 | 0.0 | 0.00 | 0.00 | 0.00 | 86 | 1020.9 |
| 20260902001211 | 58 | 240 | 0.0 | 0.0 | 0.00 | 0.00 | 0.00 | 85 | 1020.9 |
| 20260902000211 | 58 | 240 | 0.0 | 0.0 | 0.00 | 0.00 | 0.00 | 85 | 1021.0 |
| 20260901235211 | 59 | 240 | 0.0 | 0.0 | 0.00 | 0.00 | 0.00 | 84 | 1021.0 |
| 20260901234211 | 59 | 240 | 0.0 | 0.0 | 0.00 | 0.00 | 0.00 | 84 | 1021.1 |
| 20260901233211 | 60 | 240 | 0.0 | 0.0 | 0.00 | 0.00 | 0.00 | 83 | 1021.0 |
| 20260901232211 | 60 | 240 | 0.0 | 0.0 | 0.00 | 0.00 | 0.00 | 82 | 1021.0 |
| 20260901231210 | 60 | 195 | 0.0 | 0.0 | 0.00 | 0.00 | 0.00 | 82 | 1021.0 |
| 20260901230210 | 61 | 195 | 0.0 | 0.0 | 0.00 | 0.00 | 0.00 | 81 | 1021.0 |
| 20260901225211 | 61 | 195 | 0.0 | 0.0 | 0.00 | 0.00 | 0.00 | 80 | 1020.9 |
| 20260901224210 | 62 | 188 | 0.0 | 0.0 | 0.00 | 0.00 | 0.00 | 79 | 1020.9 |
| 20260901223210 | 62 | 82 | 0.0 | 0.0 | 0.00 | 0.00 | 0.00 | 78 | 1020.9 |
| 20260901222211 | 63 | 46 | 0.0 | 0.0 | 0.00 | 0.00 | 0.00 | 78 | 1020.8 |
| 20260901221213 | 64 | 46 | 0.0 | 0.0 | 0.00 | 0.00 | 0.00 | 77 | 1020.7 |
| 20260901220213 | 64 | 46 | 0.0 | 1.0 | 0.00 | 0.00 | 0.00 | 76 | 1020.7 |
| 20260901215213 | 64 | 49 | 1.0 | 3.0 | 0.00 | 0.00 | 0.00 | 76 | 1020.7 |
| 20260901214213 | 64 | 38 | 2.0 | 3.0 | 0.00 | 0.00 | 0.00 | 76 | 1020.7 |
| 20260901213213 | 64 | 33 | 2.0 | 4.0 | 0.00 | 0.00 | 0.00 | 76 | 1020.7 |
| 20260901212214 | 64 | 31 | 2.0 | 3.0 | 0.00 | 0.00 | 0.00 | 76 | 1020.7 |
| 20260901211213 | 65 | 17 | 0.0 | 0.0 | 0.00 | 0.00 | 0.00 | 76 | 1020.7 |
| 20260901210213 | 65 | 30 | 0.0 | 0.0 | 0.00 | 0.00 | 0.00 | 75 | 1020.7 |
| 20260901205213 | 65 | 30 | 0.0 | 3.0 | 0.00 | 0.00 | 0.00 | 75 | 1020.7 |
| 20260901204213 | 65 | 24 | 1.0 | 3.0 | 0.00 | 0.00 | 0.00 | 75 | 1020.8 |
| 20260901203212 | 65 | 301 | 0.0 | 0.0 | 0.00 | 0.00 | 0.00 | 75 | 1020.7 |
| 20260901202213 | 66 | 301 | 0.0 | 0.0 | 0.00 | 0.00 | 0.00 | 75 | 1020.7 |
| 20260901201213 | 66 | 301 | 0.0 | 0.0 | 0.00 | 0.00 | 0.00 | 75 | 1020.7 |
| 20260901200213 | 67 | 301 | 0.0 | 2.0 | 0.00 | 0.00 | 0.00 | 74 | 1020.6 |
| 20260901195214 | 67 | 311 | 0.0 | 0.0 | 0.00 | 0.00 | 0.00 | 73 | 1020.6 |
| 20260901194213 | 68 | 67 | 0.0 | 0.0 | 0.00 | 0.00 | 0.00 | 72 | 1020.6 |
| 20260901193213 | 69 | 67 | 0.0 | 0.0 | 0.00 | 0.00 | 0.00 | 72 | 1020.5 |
| 20260901192212 | 69 | 67 | 0.0 | 0.0 | 0.00 | 0.00 | 0.00 | 70 | 1020.4 |
| 20260901191213 | 70 | 67 | 0.0 | 0.0 | 0.00 | 0.00 | 0.00 | 68 | 1020.4 |
| 20260901190213 | 70 | 73 | 0.0 | 2.0 | 0.00 | 0.00 | 0.00 | 68 | 1020.3 |
| 20260901185212 | 71 | 75 | 1.0 | 2.0 | 0.00 | 0.00 | 0.00 | 67 | 1020.2 |
| 20260901184212 | 71 | 85 | 0.0 | 0.0 | 0.00 | 0.00 | 0.00 | 65 | 1020.1 |
| 20260901183213 | 72 | 85 | 0.0 | 0.0 | 0.00 | 0.00 | 0.00 | 63 | 1020.1 |
| 20260901182212 | 73 | 85 | 0.0 | 0.0 | 0.00 | 0.00 | 0.00 | 61 | 1020.1 |
| 20260901181212 | 74 | 85 | 1.0 | 2.0 | 0.00 | 0.00 | 0.00 | 58 | 1020.0 |
| 20260901180212 | 74 | 85 | 1.0 | 3.0 | 0.00 | 0.00 | 0.00 | 58 | 1020.0 |
| 20260901175213 | 75 | 100 | 1.0 | 3.0 | 0.00 | 0.00 | 0.00 | 57 | 1019.8 |
| 20260901174212 | 75 | 90 | 1.0 | 3.0 | 0.00 | 0.00 | 0.00 | 57 | 1019.8 |
| 20260901173212 | 75 | 80 | 1.0 | 3.0 | 0.00 | 0.00 | 0.00 | 55 | 1019.8 |
| 20260901172212 | 76 | 101 | 1.0 | 2.0 | 0.00 | 0.00 | 0.00 | 54 | 1019.8 |
| 20260901171212 | 76 | 107 | 1.0 | 2.0 | 0.00 | 0.00 | 0.00 | 54 | 1019.8 |
| 20260901165212 | 76 | 109 | 2.0 | 3.0 | 0.00 | 0.00 | 0.00 | 53 | 1019.9 |
| 20260901164213 | 77 | 134 | 0.0 | 0.0 | 0.00 | 0.00 | 0.00 | 52 | 1020.0 |
| 20260901163212 | 77 | 128 | 2.0 | 4.0 | 0.00 | 0.00 | 0.00 | 51 | 1020.1 |
| 20260901162212 | 77 | 98 | 0.0 | 3.0 | 0.00 | 0.00 | 0.00 | 50 | 1020.1 |
| 20260901161212 | 77 | 132 | 1.0 | 3.0 | 0.00 | 0.00 | 0.00 | 50 | 1020.1 |
| 20260901160212 | 77 | 86 | 2.0 | 4.0 | 0.00 | 0.00 | 0.00 | 49 | 1020.1 |
| 20260901155212 | 77 | 69 | 2.0 | 6.0 | 0.00 | 0.00 | 0.00 | 48 | 1020.1 |
| 20260901154212 | 77 | 112 | 2.0 | 4.0 | 0.00 | 0.00 | 0.00 | 49 | 1020.1 |
| 20260901153212 | 78 | 88 | 3.0 | 7.0 | 0.00 | 0.00 | 0.00 | 47 | 1020.1 |
| 20260901152212 | 78 | 141 | 1.0 | 3.0 | 0.00 | 0.00 | 0.00 | 48 | 1020.1 |
| 20260901151212 | 78 | 88 | 0.0 | 7.0 | 0.00 | 0.00 | 0.00 | 47 | 1020.1 |
| 20260901150212 | 78 | 155 | 0.0 | 4.0 | 0.00 | 0.00 | 0.00 | 47 | 1020.1 |
| 20260901145212 | 78 | 88 | 3.0 | 6.0 | 0.00 | 0.00 | 0.00 | 47 | 1020.1 |
| 20260901144212 | 78 | 178 | 2.0 | 4.0 | 0.00 | 0.00 | 0.00 | 47 | 1020.1 |
| 20260901143213 | 78 | 145 | 1.0 | 4.0 | 0.00 | 0.00 | 0.00 | 46 | 1020.2 |
| 20260901142212 | 78 | 269 | 0.0 | 3.0 | 0.00 | 0.00 | 0.00 | 47 | 1020.3 |
| 20260901141213 | 78 | 49 | 1.0 | 4.0 | 0.00 | 0.00 | 0.00 | 47 | 1020.4 |
| 20260901140212 | 78 | 269 | 0.0 | 7.0 | 0.00 | 0.00 | 0.00 | 48 | 1020.4 |
| 20260901135212 | 78 | 28 | 1.0 | 4.0 | 0.00 | 0.00 | 0.00 | 49 | 1020.4 |
| 20260901134212 | 78 | 99 | 3.0 | 7.0 | 0.00 | 0.00 | 0.00 | 47 | 1020.5 |
| 20260901133212 | 79 | 133 | 2.0 | 6.0 | 0.00 | 0.00 | 0.00 | 47 | 1020.6 |
| 20260901132212 | 78 | 344 | 2.0 | 4.0 | 0.00 | 0.00 | 0.00 | 47 | 1020.6 |
| 20260901131212 | 79 | 62 | 2.0 | 5.0 | 0.00 | 0.00 | 0.00 | 46 | 1020.7 |
| 20260901130212 | 80 | 121 | 3.0 | 7.0 | 0.00 | 0.00 | 0.00 | 45 | 1020.8 |
| 20260901125212 | 81 | 128 | 4.0 | 9.0 | 0.00 | 0.00 | 0.00 | 46 | 1020.8 |
| 20260901124212 | 79 | 228 | 3.0 | 6.0 | 0.00 | 0.00 | 0.00 | 47 | 1020.9 |
| 20260901123212 | 79 | 150 | 2.0 | 5.0 | 0.00 | 0.00 | 0.00 | 45 | 1021.0 |
| 20260901122212 | 80 | 55 | 3.0 | 6.0 | 0.00 | 0.00 | 0.00 | 44 | 1021.1 |
| 20260901121212 | 81 | 159 | 5.0 | 8.0 | 0.00 | 0.00 | 0.00 | 44 | 1021.1 |